FENGYUN 1C DEB, 29913

Orbit data source: Space-Track

FENGYUN 1C DEB, 29913 is space debris in SSO originally from a launch on Mon, 10 May 1999 UTC launched from the Taiyaun Space Center, China (TSC). Fengyun 1C debris stems from the Chinese weather satellite Fengyun-1C, which was intentionally destroyed by a Chinese anti-satellite missile in 2007. This event dramatically increased the amount of space debris, with thousands of trackable fragments posing hazards to satellites and human spaceflight. The Fengyun 1C debris cloud has become a focal point in discussions about space sustainability and the need for international regulations to prevent the creation of new debris.

Loading next visibility...
Identifier
29913, 1999-025HK
Orbit
SSO
Country
Flag of CNCN / PRC
Related business
Manufacturer
Unknown
Mission
Spacecraft
Bus & Motor
Unknown
Mass
Unknown
Launch date (UTC)
1999-05-10 (27 years ago)
Launch vehicle
Unknown
Launch site
Taiyaun Space Center, China (TSC)
Object type
Payload
Rocket body
Debris
Shape & HBR
Unknown shape, 0.1 m
Radar Cross Section
Medium (>0.1 m² and <1 m²)

Expand to show TLE details & history
Last TLE update: 1 week ago

TLE from 1 week ago
0 FENGYUN 1C DEB
1 29913U 99025HK  26154.57359207  .00000433  00000-0  27674-3 0  9994
2 29913  98.7926 153.8017 0063482 143.7154 339.1083 14.07573365993964
Epoch: 2026-06-03T13:45Z
TLE epoch observation values (Epoch: 2026-06-03T13:45:58.354Z)
Latitude
56.4979°
Longitude
-111.28131°
Altitude
834.143 km
Speed
7.463 km/s
True Right ascension
23h 08m 58s
True Declination
56° 20' 28"
Sunlit
Object was in daylight at epoch
Visualization orbit readout
Latitude
Unknown
Longitude
Unknown
Altitude
Unknown
Speed
Unknown
Apparent Right ascension
Unknown
Apparent Declination
Unknown
Sunlit
N/A
Visualization observer readout
Local Sidereal Time
01:49:44
Azimuth
Unknown
Elevation
Unknown
Doppler factor
Unknown
Orbital elements
Apogee altitude
910.847 km
Perigee altitude
818.887 km
Semi-major axis
7,243.004 km
Eccentricity
0.00635
Inclination
98.7926°
RAAN
153.8017°
Arg. of periapsis
143.7154°
True anomaly
338.84695°
Mean anomaly
339.1083°
Eccentric anomaly
338.97782°
Mean motion
3.52099 °/min
Orbital period
102.24 mins
BSTAR
0.00027674
Loading maneuver chart data...
Computing Atmospheric mass density...
Loading historical data...
Loading historical data...
Loading historical data...
Loading historical data...
Loading historical data...
Loading historical data...
Loading historical data...

Documentation

Showing up to 5 results
|